Showing default

NUSAT-40 (C SHOEMAKER), 56943

Orbit data source: Space-Track

NUSAT-40 (C SHOEMAKER), 56943 is a payload satellite owned by URUGUS S.A. (AR) in SSO that was launched on Mon, 12 Jun 2023 UTC via an FALCON 9 launch vehicle from the Air Force Western Test Range (AFWTR). Payload-class satellites include a variety of spacecraft equipped with specific instruments for various scientific and technological missions. These include communications satellites like Starlink; space stations such as the ISS; scientific satellites like the Hubble; Earth observation satellites from companies like Planet Labs, Umbra, and HawkEye 360; GPS; miniature CubeSats for education and research; and military/defense satellites.

Loading next visibility...
Identifier
56943, 2023-084M
Orbit
SSO
Country
Flag of UnknownUnknown / ARGN
Related business
Manufacturer
URUGUS S.A.
Mission
Operational Commercial Imaging
Bus & Motor
NEWSAT V, Unknown motor
Mass
41.5 kg wet, 38.5 kg dry
Launch date (UTC)
2023-06-12 (2 years ago)
Launch vehicle
FALCON 9
Launch site
Air Force Western Test Range (AFWTR)
Object type
Payload
Rocket body
Debris
Shape & HBR
Box, 1.0 m
Radar Cross Section
0.542 m², Medium (>0.1 m² and < 1m²)

Expand to show TLE details & history
Last TLE update: 16 hours ago

TLE from 16 hours ago
0 NUSAT-40 (C SHOEMAKER)
1 56943U 23084M   25291.31620968  .00046183  00000-0  94030-3 0  9999
2 56943  97.4658  60.4192 0005519  65.0306 295.1515 15.46110846131122
Epoch: 2025-10-18T07:35Z
TLE epoch observation values (Epoch: 2025-10-18T07:35:20.516Z)
Latitude
-0.0001°
Longitude
-80.46525°
Altitude
429.645 km
Speed
7.655 km/s
True Right ascension
04h 01m 40s
True Declination
0° 00' 00"
Sunlit
Object was in full shadow at epoch
Visualization orbit readout
Latitude
Unknown
Longitude
Unknown
Altitude
Unknown
Speed
Unknown
Apparent Right ascension
Unknown
Apparent Declination
Unknown
Sunlit
N/A
Visualization observer readout
Local Sidereal Time
18:52:42
Azimuth
Unknown
Elevation
Unknown
Doppler factor
Unknown
Orbital elements
Apogee altitude
428.804 km
Perigee altitude
421.295 km
Semi-major axis
6,803.187 km
Eccentricity
0.00055
Inclination
97.4658°
RAAN
60.4192°
Arg. of periapsis
65.0306°
True anomaly
295.09424°
Mean anomaly
295.1515°
Eccentric anomaly
295.12287°
Mean motion
3.86789 °/min
Orbital period
93.07 mins
BSTAR
0.0009403
Loading maneuver chart data...
Computing Atmospheric mass density...

Documentation

Showing up to 5 results
|